Weather History for KPSC - February, 2013

Change the Weather History Date:

Monday, February 25, 2013

  Actual Average Record
Temperature  
Mean Temperature 42 °F 41 °F  
Max Temperature 53 °F 53 °F 62 °F (1995)
Min Temperature 31 °F 29 °F 7 °F (1993)
Degree Days  
Heating Degree Days 23 24  
Month to date heating degree days 643 661  
Since 1 July heating degree days 3554 3812  
Cooling Degree Days 0 0  
Month to date cooling degree days 0 0  
Year to date cooling degree days 0 0  
Moisture  
Dew Point 29 °F    
Average Humidity 54    
Maximum Humidity 78    
Minimum Humidity 30    
Precipitation  
Precipitation 0.05 in 0.03 in 0.17 in (1996)
Month to date precipitation 0.06 0.77  
Year to date precipitation 0.42 1.99  
Snow  
Snow 0.00 in - - ()
Snow Depth 0.00 in    
Sea Level Pressure  
Sea Level Pressure 30.07 in    
Wind  
Wind Speed 13 mph (SW)    
Max Wind Speed 33 mph    
Max Gust Speed 45 mph    
Visibility 10 miles    
Events Rain    
T = Trace of Precipitation, MM = Missing Value Source: NWS Daily Summary

Daily Weather History Graph

Daily Weather History Graph

Search for Another Location

Airport or City:

Trip Planner

Search our weather history database for the weather conditions in past years. The results will help you decide how hot, cold, wet, or windy it might be!

Date:

Astronomy

Feb. 25, 2013 Rise Set
Actual Time 6:42 AM PST 5:37 PM PST
Civil Twilight 6:11 AM PST 6:07 PM PST
Nautical Twilight 5:37 AM PST 6:42 PM PST
Astronomical Twilight 5:02 AM PST 7:17 PM PST
Moon 6:00 PM PST (2/25) 6:12 AM PST (2/25)
Length of Visible Light 11h 55m
Length of Day
10h 55m
Full, 100% of the Moon is Illuminated
Feb 25
Full
Feb 25
Full
Mar 4
Last Quarter
Mar 11
New
Mar 19
First Quarter

Hourly Weather History & Observations

Time (PST) Temp. Windchill Dew Point Humidity Pressure Visibility Wind Dir Wind Speed Gust Speed Precip Events Conditions
12:53 AM 32.0 °F 26.4 °F 27.0 °F 82% 30.04 in 10.0 mi East 5.8 mph - N/A   Mostly Cloudy
1:53 AM 36.0 °F 33.3 °F 28.0 °F 73% 30.02 in 10.0 mi ESE 3.5 mph - N/A   Mostly Cloudy
2:53 AM 36.0 °F - 30.9 °F 82% 30.02 in 10.0 mi Calm Calm - 0.01 in Rain Light Rain
3:53 AM 37.9 °F 30.5 °F 34.0 °F 86% 29.97 in 10.0 mi East 11.5 mph - 0.03 in   Overcast
4:53 AM 39.0 °F 31.8 °F 33.1 °F 79% 29.98 in 10.0 mi SE 11.5 mph - 0.00 in Rain Light Rain
5:53 AM 43.0 °F 36.4 °F 35.1 °F 74% 29.97 in 10.0 mi South 12.7 mph - 0.00 in   Overcast
6:53 AM 43.0 °F 37.7 °F 34.0 °F 71% 29.99 in 10.0 mi SW 9.2 mph - N/A   Clear
7:53 AM 41.0 °F 31.4 °F 34.0 °F 76% 30.00 in 10.0 mi SW 21.9 mph 29.9 mph N/A   Clear
8:53 AM 44.1 °F 34.2 °F 34.0 °F 68% 30.01 in 10.0 mi SW 28.8 mph 40.3 mph 0.01 in   Clear
10:53 AM 48.0 °F - 33.1 °F 56% 30.03 in 10.0 mi SW 27.6 mph 39.1 mph N/A   Clear
11:53 AM 51.1 °F - 32.0 °F 48% 30.04 in 10.0 mi SW 23.0 mph 33.4 mph N/A   Clear
12:53 PM 51.1 °F - 28.9 °F 43% 30.03 in 10.0 mi WSW 20.7 mph 27.6 mph N/A   Scattered Clouds
1:53 PM 53.1 °F - 25.0 °F 34% 30.03 in 10.0 mi West 16.1 mph 28.8 mph N/A   Clear
2:53 PM 51.1 °F - 24.1 °F 35% 30.04 in 10.0 mi West 20.7 mph 31.1 mph N/A   Scattered Clouds
3:53 PM 52.0 °F - 21.9 °F 31% 30.05 in 10.0 mi West 18.4 mph 24.2 mph N/A   Clear
4:53 PM 52.0 °F - 21.0 °F 30% 30.06 in 10.0 mi West 24.2 mph 32.2 mph N/A   Scattered Clouds
5:53 PM 46.0 °F 38.0 °F 30.0 °F 54% 30.10 in 10.0 mi WSW 21.9 mph 32.2 mph N/A   Clear
6:53 PM 42.1 °F 32.6 °F 30.9 °F 65% 30.14 in 10.0 mi WSW 23.0 mph 28.8 mph N/A   Scattered Clouds
7:53 PM 39.9 °F 31.1 °F 28.9 °F 65% 30.16 in 10.0 mi WSW 17.3 mph 23.0 mph N/A   Scattered Clouds
8:53 PM 37.9 °F 29.6 °F 28.0 °F 68% 30.18 in 10.0 mi WSW 13.8 mph - N/A   Clear
9:53 PM 37.0 °F 28.1 °F 28.0 °F 70% 30.21 in 10.0 mi SW 15.0 mph - N/A   Clear
10:53 PM 37.0 °F 28.5 °F 27.0 °F 67% 30.22 in 10.0 mi SW 13.8 mph - N/A   Clear
11:53 PM 36.0 °F 27.5 °F 27.0 °F 70% 30.25 in 10.0 mi SW 12.7 mph - N/A   Partly Cloudy